Tracking 25710 objects as of 7-Jul-2022
HD Live streaming from Space Station
objects crossing your sky now

STARLINK-3750

Track STARLINK-3750 now!
10-day predictions
STARLINK-3750 is classified as:


NORAD ID: 52311
Int'l Code: 2022-041BC
Perigee: 378.8 km
Apogee: 380.7 km
Inclination: 53.2 °
Period: 92.0 minutes
Semi major axis: 6750 km
RCS: Unknown
Launch date: April 21, 2022
Source: United States (US)
Launch site: AIR FORCE EASTERN TEST RANGE (AFETR)
aabbcc
Your satellite tracking list
Your tracking list is empty




NASA's NSSDC Master Catalog

Two Line Element Set (TLE):
1 52311U 22041BC  22187.58334491 -.01047999  00000-0 -11563-1 0  9996
2 52311  53.2175 359.2585 0001389  54.9503  97.6645 15.65228026  1309
Source of the keplerian elements: AFSPC